N1ICS-1 Weather Reports


time (UTC)temp
C
wind
direction
speed
KPH
gust
KPH
rain 1hr
cm
rain 24hr
cm
rain mn
cm
humidity
%
barometer
mb
20260503055001 2 296 3.2 3.2 0.00 0.00 0.00 89 1018.9
20260503054502 2 269 3.2 3.2 0.00 0.00 0.00 89 1018.9
20260503054001 2 293 3.2 3.2 0.00 0.00 0.00 90 1019.0
20260503053502 2 261 3.2 3.2 0.00 0.00 0.00 90 1019.0
20260503053001 2 277 3.2 3.2 0.00 0.00 0.00 90 1018.9
20260503052501 2 269 3.2 3.2 0.00 0.00 0.00 89 1018.9
20260503052002 2 268 3.2 4.8 0.00 0.00 0.00 87 1019.0
20260503051502 2 305 3.2 4.8 0.00 0.00 0.00 87 1019.0
20260503051002 2 318 3.2 3.2 0.00 0.00 0.00 88 1019.1
20260503050501 2 22 0.0 3.2 0.00 0.00 0.00 89 1019.1
20260503050002 2 304 0.0 0.0 0.00 0.00 0.00 91 1019.0
20260503045501 2 264 0.0 3.2 0.00 0.00 0.00 90 1019.0
20260503045002 2 269 3.2 3.2 0.00 0.00 0.00 89 1019.0
20260503044502 2 269 0.0 3.2 0.00 0.00 0.00 89 1019.0
20260503044002 2 264 3.2 4.8 0.00 0.00 0.00 89 1019.0
20260503043501 2 275 3.2 4.8 0.00 0.00 0.00 87 1019.0
20260503043001 2 260 3.2 3.2 0.00 0.00 0.00 86 1019.1
20260503042502 2 263 3.2 4.8 0.00 0.00 0.00 87 1019.0
20260503042002 2 266 3.2 3.2 0.00 0.00 0.00 86 1018.9
20260503041501 2 281 3.2 4.8 0.00 0.00 0.00 86 1019.1
20260503041002 2 263 3.2 4.8 0.00 0.00 0.00 85 1019.0
20260503040501 2 273 3.2 3.2 0.00 0.00 0.00 87 1019.1
20260503040002 2 259 3.2 4.8 0.00 0.00 0.00 87 1019.1
20260503035502 2 280 3.2 4.8 0.00 0.00 0.00 86 1019.1
20260503035001 2 280 4.8 6.4 0.00 0.00 0.00 86 1019.1
20260503034502 2 271 3.2 4.8 0.00 0.00 0.00 87 1018.9
20260503034001 2 233 3.2 3.2 0.00 0.00 0.00 88 1019.0
20260503033501 2 220 3.2 3.2 0.00 0.00 0.00 87 1019.1
20260503033002 2 227 0.0 3.2 0.00 0.00 0.00 86 1019.0
20260503032502 2 269 0.0 3.2 0.00 0.00 0.00 85 1019.0
20260503032001 2 269 0.0 3.2 0.00 0.00 0.00 84 1018.9
20260503031502 3 235 0.0 3.2 0.00 0.00 0.00 83 1019.0
20260503031001 3 256 0.0 3.2 0.00 0.00 0.00 83 1019.1
20260503030502 3 277 3.2 3.2 0.00 0.00 0.00 82 1019.0
20260503030003 3 287 3.2 4.8 0.00 0.00 0.00 82 1019.0
20260503025501 3 304 0.0 0.0 0.00 0.00 0.00 84 1019.0
20260503025002 3 304 0.0 0.0 0.00 0.00 0.00 84 1019.2
20260503024501 3 304 0.0 0.0 0.00 0.00 0.00 84 1019.0
20260503024001 3 256 0.0 0.0 0.00 0.00 0.00 83 1019.2
20260503023502 3 304 0.0 3.2 0.00 0.00 0.00 82 1019.0
20260503023001 3 308 3.2 4.8 0.00 0.00 0.00 82 1018.9
20260503022501 3 311 0.0 4.8 0.00 0.00 0.00 81 1019.1
20260503022002 4 274 3.2 6.4 0.00 0.00 0.00 81 1019.2
20260503021501 4 187 3.2 3.2 0.00 0.00 0.00 81 1018.9
20260503021002 4 304 3.2 6.4 0.00 0.00 0.00 81 1019.3
20260503020502 4 185 3.2 4.8 0.00 0.00 0.00 83 1019.1
20260503020002 4 203 3.2 4.8 0.00 0.00 0.00 82 1018.9
20260503015501 4 216 4.8 8.0 0.00 0.00 0.00 83 1018.8
20260503015002 4 267 4.8 4.8 0.00 0.00 0.00 85 1018.9
20260503014502 4 256 4.8 6.4 0.00 0.00 0.00 85 1018.8
20260503014001 4 251 4.8 6.4 0.00 0.00 0.00 85 1018.9
20260503013502 4 284 4.8 6.4 0.00 0.00 0.00 86 1018.9
20260503013001 4 272 4.8 4.8 0.00 0.00 0.00 86 1018.9
20260503012501 4 267 3.2 4.8 0.00 0.00 0.00 87 1018.7
20260503012002 5 277 3.2 3.2 0.00 0.00 0.00 87 1018.9
20260503011502 5 258 3.2 4.8 0.00 0.00 0.00 87 1018.8
20260503011002 5 256 3.2 4.8 0.00 0.00 0.00 86 1018.8
20260503010502 5 256 4.8 4.8 0.00 0.00 0.00 85 1018.6
20260503010003 5 278 3.2 3.2 0.00 0.00 0.00 84 1018.7
20260503005502 5 253 3.2 4.8 0.00 0.00 0.00 83 1018.8
20260503005001 5 271 3.2 3.2 0.00 0.00 0.00 82 1018.8
20260503004501 5 164 0.0 4.8 0.00 0.00 0.00 80 1018.8
20260503004002 6 212 3.2 4.8 0.00 0.00 0.00 77 1018.7
20260503003502 6 234 4.8 6.4 0.00 0.00 0.00 74 1018.7
20260503003002 7 221 4.8 6.4 0.00 0.00 0.00 72 1018.5
20260503002501 7 222 6.4 6.4 0.00 0.00 0.00 71 1018.6
20260503002002 8 244 6.4 8.0 0.00 0.00 0.00 68 1018.5
20260503001502 8 255 6.4 9.7 0.00 0.00 0.00 66 1018.4
20260503001002 7 250 8.0 11.3 0.00 0.00 0.00 62 1018.4
20260503000502 8 257 9.7 11.3 0.00 0.00 0.00 62 1018.5
20260503000002 8 265 12.9 14.5 0.00 0.00 0.00 59 1018.5
20260502235502 8 297 9.7 12.9 0.00 0.00 0.00 56 1018.5
20260502235001 8 278 6.4 9.7 0.00 0.00 0.00 56 1018.5
20260502234502 8 336 4.8 12.9 0.00 0.00 0.00 51 1018.7
20260502234002 8 273 11.3 14.5 0.00 0.00 0.00 51 1018.5
20260502233501 9 288 12.9 20.9 0.00 0.00 0.00 48 1018.5
20260502233002 9 289 14.5 20.9 0.00 0.00 0.00 51 1018.7
20260502232501 9 279 14.5 20.9 0.00 0.00 0.00 51 1018.5
20260502232002 9 263 9.7 17.7 0.00 0.00 0.00 50 1018.5
20260502231502 9 287 14.5 20.9 0.00 0.00 0.00 49 1018.5
20260502231002 10 282 12.9 17.7 0.00 0.00 0.00 50 1018.6
20260502230502 10 289 12.9 20.9 0.00 0.00 0.00 51 1018.8
20260502230001 9 293 12.9 20.9 0.00 0.00 0.00 49 1018.6
20260502225502 9 269 6.4 14.5 0.00 0.00 0.00 50 1018.7
20260502225002 10 272 14.5 19.3 0.00 0.00 0.00 50 1018.7
20260502224502 9 352 6.4 14.5 0.00 0.00 0.00 50 1018.8
20260502224001 8 317 8.0 16.1 0.00 0.00 0.00 50 1018.9
20260502223502 8 276 6.4 17.7 0.00 0.00 0.00 53 1018.7
20260502223002 10 344 9.7 17.7 0.00 0.00 0.00 51 1018.8
20260502222501 10 354 4.8 9.7 0.00 0.00 0.00 47 1018.7
20260502222002 10 335 6.4 20.9 0.00 0.00 0.00 48 1018.8
20260502221502 10 0 8.0 14.5 0.00 0.00 0.00 51 1018.7
20260502221002 8 2 9.7 14.5 0.00 0.00 0.00 48 1018.9
20260502220502 8 267 17.7 25.7 0.00 0.00 0.00 51 1018.7
20260502220003 9 263 9.7 20.9 0.00 0.00 0.00 53 1018.8
20260502215501 9 320 6.4 12.9 0.00 0.00 0.00 51 1018.9
20260502215002 9 23 9.7 12.9 0.00 0.00 0.00 52 1019.0
20260502214502 8 5 4.8 14.5 0.00 0.00 0.00 53 1018.8
20260502214001 8 316 9.7 20.9 0.00 0.00 0.00 50 1019.0
20260502213502 9 338 9.7 20.9 0.00 0.00 0.00 48 1018.9
20260502213002 8 333 6.4 12.9 0.00 0.00 0.00 51 1018.9
20260502212501 8 329 4.8 19.3 0.00 0.00 0.00 51 1018.8
20260502212002 8 307 11.3 17.7 0.00 0.00 0.00 49 1018.9
20260502211502 8 353 8.0 17.7 0.00 0.00 0.00 49 1018.9
20260502211001 8 311 9.7 24.1 0.00 0.00 0.00 48 1019.0
20260502210502 8 356 17.7 29.0 0.00 0.00 0.00 49 1018.8
20260502210002 8 96 8.0 14.5 0.00 0.00 0.00 50 1018.9
20260502205502 8 294 6.4 24.1 0.00 0.00 0.00 50 1019.1
20260502205001 8 320 6.4 14.5 0.00 0.00 0.00 52 1019.1
20260502204502 8 232 9.7 32.2 0.00 0.00 0.00 54 1018.9
20260502204001 8 311 14.5 20.9 0.00 0.00 0.00 53 1018.9
20260502203502 8 350 9.7 19.3 0.00 0.00 0.00 50 1018.9
20260502203002 8 26 4.8 16.1 0.00 0.00 0.00 52 1019.1
20260502202501 8 29 8.0 11.3 0.00 0.00 0.00 51 1019.0
20260502202001 8 327 3.2 19.3 0.00 0.00 0.00 51 1019.2
20260502201501 8 14 16.1 20.9 0.00 0.00 0.00 52 1019.2
20260502201002 8 330 16.1 19.3 0.00 0.00 0.00 50 1019.2
20260502200502 8 295 4.8 22.5 0.00 0.00 0.00 50 1019.2
20260502200002 8 288 6.4 20.9 0.00 0.00 0.00 54 1019.3
20260502195502 8 0 6.4 20.9 0.00 0.00 0.00 54 1019.1
20260502195002 8 7 11.3 20.9 0.00 0.00 0.00 53 1019.3
20260502194502 8 342 19.3 24.1 0.00 0.00 0.00 51 1019.3
20260502194001 8 305 16.1 30.6 0.00 0.00 0.00 55 1019.4
20260502193502 8 265 27.4 29.0 0.00 0.00 0.00 53 1019.4
20260502193002 8 294 12.9 30.6 0.00 0.00 0.00 51 1019.4
20260502192501 8 313 8.0 24.1 0.00 0.00 0.00 51 1019.4
20260502192002 8 7 6.4 30.6 0.00 0.00 0.00 51 1019.6
20260502191502 8 300 14.5 27.4 0.00 0.00 0.00 54 1019.4
20260502191002 9 342 17.7 29.0 0.00 0.00 0.00 51 1019.4
20260502190502 9 301 11.3 25.7 0.00 0.00 0.00 50 1019.6
20260502190001 8 301 16.1 25.7 0.00 0.00 0.00 52 1019.6
20260502185502 8 269 16.1 29.0 0.00 0.00 0.00 56 1019.5
20260502185001 8 3 3.2 17.7 0.00 0.00 0.00 48 1019.5
20260502184502 8 47 3.2 24.1 0.00 0.00 0.00 50 1019.6
20260502184002 8 327 9.7 20.9 0.00 0.00 0.00 57 1019.6
20260502183502 8 295 9.7 17.7 0.00 0.00 0.00 54 1019.8
20260502183002 8 311 9.7 27.4 0.00 0.00 0.00 53 1019.6
20260502182502 8 281 16.1 19.3 0.00 0.00 0.00 56 1019.6
20260502182002 8 3 12.9 20.9 0.00 0.00 0.00 52 1020.0
20260502181501 7 353 16.1 22.5 0.00 0.00 0.00 52 1019.8
20260502181002 7 355 19.3 24.1 0.00 0.00 0.00 53 1019.9
20260502180502 7 280 4.8 20.9 0.00 0.00 0.00 56 1020.0
20260502170501 7 321 9.7 20.9 0.00 0.00 0.00 54 1020.3
20260502164002 7 263 11.3 24.1 0.00 0.00 0.00 55 1020.4
20260502163502 8 283 12.9 29.0 0.00 0.00 0.00 51 1020.5
20260502163002 8 295 8.0 20.9 0.00 0.00 0.00 59 1020.5
20260502162501 7 328 3.2 14.5 0.00 0.00 0.00 56 1020.5
20260502162002 7 291 17.7 24.1 0.00 0.00 0.00 53 1020.3
20260502161501 7 38 6.4 30.6 0.00 0.00 0.00 59 1020.7
20260502161002 7 303 12.9 17.7 0.00 0.00 0.00 58 1020.6
20260502160502 8 316 16.1 17.7 0.00 0.00 0.00 61 1020.6
20260502152002 6 264 14.5 20.9 0.00 0.00 0.00 62 1020.5
20260502151502 7 28 9.7 24.1 0.00 0.00 0.00 63 1020.6
20260502151002 6 345 8.0 20.9 0.00 0.00 0.00 67 1020.4
20260502150501 7 16 11.3 16.1 0.00 0.00 0.00 65 1020.3
20260502130501 4 0 11.3 20.9 0.00 0.00 0.00 78 1020.1
20260502123502 3 344 8.0 14.5 0.00 0.00 0.00 78 1020.0
20260502123002 3 341 6.4 16.1 0.00 0.00 0.00 80 1019.8
20260502122502 3 319 9.7 20.9 0.00 0.00 0.00 81 1019.7
20260502122001 2 315 8.0 19.3 0.00 0.00 0.00 81 1019.7
20260502121502 2 309 9.7 24.1 0.00 0.00 0.00 82 1019.8
20260502121002 2 320 6.4 12.9 0.00 0.00 0.00 81 1019.7
20260502120502 2 0 3.2 16.1 0.00 0.00 0.00 82 1019.6
20260502115501 1 314 6.4 19.3 0.00 0.00 0.00 84 1019.7
20260502115002 1 302 6.4 9.7 0.00 0.00 0.00 84 1019.7
20260502114501 1 306 3.2 6.4 0.00 0.00 0.00 85 1019.8
20260502114001 1 299 8.0 11.3 0.00 0.00 0.00 87 1019.8
20260502113502 0 268 4.8 12.9 0.00 0.00 0.00 88 1019.6
20260502113001 0 288 3.2 6.4 0.00 0.00 0.00 90 1019.6
20260502112501 0 287 3.2 6.4 0.00 0.00 0.00 91 1019.6
20260502112002 0 259 0.0 6.4 0.00 0.00 0.00 91 1019.5
20260502111502 0 288 6.4 6.4 0.00 0.00 0.00 91 1019.6
20260502111002 0 275 3.2 6.4 0.00 0.00 0.00 90 1019.6
20260502110501 0 267 3.2 6.4 0.00 0.00 0.00 90 1019.5
20260502110002 0 301 3.2 6.4 0.00 0.00 0.00 90 1019.4
20260502105502 0 295 0.0 4.8 0.00 0.00 0.00 90 1019.4
20260502105001 0 19 0.0 6.4 0.00 0.00 0.00 90 1019.5
20260502104502 0 310 4.8 4.8 0.00 0.00 0.00 90 1019.4
20260502104002 0 296 3.2 6.4 0.00 0.00 0.00 90 1019.3
20260502103501 0 311 0.0 6.4 0.00 0.00 0.00 89 1019.3
20260502103001 0 293 3.2 8.0 0.00 0.00 0.00 89 1019.2
20260502102502 0 12 4.8 8.0 0.00 0.00 0.00 90 1019.3
20260502102002 0 321 3.2 6.4 0.00 0.00 0.00 89 1019.3
20260502101501 0 287 3.2 9.7 0.00 0.00 0.00 89 1019.4
20260502101002 0 0 3.2 6.4 0.00 0.00 0.00 89 1019.4
20260502100501 0 336 0.0 4.8 0.00 0.00 0.00 89 1019.5
20260502091502 0 11 0.0 8.0 0.00 0.00 0.00 87 1019.0
20260502091002 0 183 3.2 4.8 0.00 0.00 0.00 87 1019.1
20260502090501 0 324 0.0 8.0 0.00 0.00 0.00 87 1019.1
20260502071502 1 300 4.8 8.0 0.00 0.00 0.00 82 1019.0
20260502071002 1 195 3.2 6.4 0.00 0.00 0.00 83 1019.0
20260502070502 1 336 4.8 9.7 0.00 0.00 0.00 81 1019.1
20260502070002 1 341 4.8 9.7 0.00 0.00 0.00 82 1019.1
20260502065501 1 354 3.2 6.4 0.00 0.00 0.00 82 1019.1
20260502065002 1 2 4.8 9.7 0.00 0.00 0.00 82 1019.0
20260502064502 2 9 4.8 11.3 0.00 0.00 0.00 82 1019.1
20260502064002 2 337 3.2 8.0 0.00 0.00 0.00 83 1019.2
20260502063501 2 17 9.7 11.3 0.00 0.00 0.00 83 1019.1